When you browse on this site, cookies collect data to enhance your experience and personalize the content and advertising you see.
Visit our Privacy Policy to learn more. By continuing to use the site, you agree to this use of cookies and data.
  • In France
  • List of Countries
  • For 7 days
  • Water Temperature
  • Weather Map
  • Weather Widgets
  • user-avatar
    Login

    Hourly Weather Saskatoon

    Today, 25 May, Monday

    Time Temperature Precipitation Wind Pressure Humidity
    00:00 +13°C° 0 mm 3 mps 715 mmHg 64%
    01:00 +13°C° 0 mm 2 mps 715 mmHg 66%
    02:00 +13°C° 0 mm 2 mps 715 mmHg 67%
    03:00 +12°C° 0 mm 2 mps 715 mmHg 68%
    04:00 +11°C° 0 mm 3 mps 715 mmHg 70%
    05:00 +10°C° 0 mm 3 mps 714 mmHg 71%
    06:00 +12°C° 0 mm 3 mps 715 mmHg 64%
    07:00 +16°C° 0 mm 3 mps 715 mmHg 57%
    08:00 +18°C° 0 mm 3 mps 715 mmHg 51%
    09:00 +19°C° 0 mm 3 mps 715 mmHg 46%
    10:00 +21°C° 0 mm 3 mps 715 mmHg 41%
    11:00 +23°C° 0 mm 4 mps 715 mmHg 36%
    12:00 +23°C° 0 mm 4 mps 714 mmHg 35%
    13:00 +23°C° 0 mm 4 mps 714 mmHg 33%
    14:00 +25°C° 0 mm 4 mps 714 mmHg 32%
    15:00 +23°C° 0 mm 4 mps 713 mmHg 33%
    16:00 +23°C° 0 mm 4 mps 713 mmHg 33%
    17:00 +23°C° 0 mm 4 mps 713 mmHg 34%
    18:00 +21°C° 0 mm 4 mps 712 mmHg 40%
    19:00 +20°C° 0 mm 3 mps 712 mmHg 46%
    20:00 +18°C° 0 mm 3 mps 712 mmHg 51%
    21:00 +18°C° 0 mm 4 mps 711 mmHg 52%
    22:00 +17°C° 0 mm 4 mps 711 mmHg 52%
    23:00 +16°C° 0 mm 5 mps 710 mmHg 53%

    Tomorrow, 26 May, Tuesday

    Time Temperature Precipitation Wind Pressure Humidity
    00:00 +15°C° 0 mm 4 mps 710 mmHg 57%
    01:00 +16°C° 0 mm 3 mps 710 mmHg 61%
    02:00 +15°C° 0 mm 2 mps 710 mmHg 64%
    03:00 +15°C° 0.4 mm 2 mps 709 mmHg 71%
    04:00 +13°C° 0.4 mm 3 mps 709 mmHg 77%
    05:00 +13°C° 0.4 mm 3 mps 708 mmHg 83%
    06:00 +13°C° 0.6 mm 3 mps 708 mmHg 84%
    07:00 +13°C° 0.6 mm 3 mps 708 mmHg 85%
    08:00 +13°C° 0.6 mm 3 mps 708 mmHg 87%
    09:00 +14°C° 0.3 mm 3 mps 708 mmHg 83%
    10:00 +16°C° 0.3 mm 3 mps 708 mmHg 78%
    11:00 +17°C° 0.3 mm 2 mps 707 mmHg 74%
    12:00 +18°C° 0.7 mm 3 mps 707 mmHg 70%
    13:00 +19°C° 0.7 mm 4 mps 707 mmHg 66%
    14:00 +20°C° 0.7 mm 5 mps 707 mmHg 62%
    15:00 +19°C° 0.3 mm 6 mps 707 mmHg 65%
    16:00 +18°C° 0.3 mm 7 mps 707 mmHg 67%
    17:00 +17°C° 0.3 mm 8 mps 707 mmHg 70%
    18:00 +15°C° 0 mm 7 mps 707 mmHg 73%
    19:00 +14°C° 0 mm 6 mps 708 mmHg 77%
    20:00 +13°C° 0 mm 6 mps 708 mmHg 80%
    21:00 +11°C° 0 mm 6 mps 708 mmHg 80%
    22:00 +11°C° 0 mm 7 mps 709 mmHg 81%
    23:00 +10°C° 0 mm 7 mps 709 mmHg 81%

    Day after tomorrow, 27 May, Wednesday

    Time Temperature Precipitation Wind Pressure Humidity
    00:00 +11°C° 0.1 mm 7 mps 709 mmHg 79%
    01:00 +11°C° 0.1 mm 7 mps 710 mmHg 76%
    02:00 +11°C° 0.1 mm 7 mps 710 mmHg 74%
    03:00 +11°C° 0 mm 7 mps 710 mmHg 75%
    04:00 +11°C° 0 mm 6 mps 711 mmHg 76%
    05:00 +10°C° 0 mm 6 mps 711 mmHg 77%
    06:00 +11°C° 0 mm 6 mps 712 mmHg 73%
    07:00 +12°C° 0 mm 7 mps 712 mmHg 70%
    08:00 +14°C° 0 mm 7 mps 713 mmHg 66%
    09:00 +15°C° 0.3 mm 8 mps 713 mmHg 60%
    10:00 +16°C° 0.3 mm 9 mps 713 mmHg 54%
    11:00 +17°C° 0.3 mm 10 mps 713 mmHg 47%
    12:00 +17°C° 0.2 mm 10 mps 713 mmHg 48%
    13:00 +17°C° 0.2 mm 10 mps 714 mmHg 48%
    14:00 +17°C° 0.2 mm 10 mps 714 mmHg 48%
    15:00 +16°C° 0.3 mm 10 mps 714 mmHg 49%
    16:00 +16°C° 0.3 mm 9 mps 714 mmHg 51%
    17:00 +15°C° 0.3 mm 9 mps 714 mmHg 52%
    18:00 +13°C° 0.2 mm 8 mps 715 mmHg 59%
    19:00 +11°C° 0.2 mm 7 mps 715 mmHg 66%
    20:00 +10°C° 0.2 mm 6 mps 716 mmHg 72%
    21:00 +10°C° 0 mm 6 mps 717 mmHg 75%
    22:00 +9°C° 0 mm 6 mps 717 mmHg 78%
    23:00 +8°C° 0 mm 6 mps 718 mmHg 81%

    28 May, Thursday

    Time Temperature Precipitation Wind Pressure Humidity
    00:00 +7°C° 0 mm 5 mps 718 mmHg 83%
    01:00 +7°C° 0 mm 5 mps 719 mmHg 85%
    02:00 +6°C° 0 mm 5 mps 719 mmHg 86%
    03:00 +6°C° 0 mm 5 mps 720 mmHg 87%
    04:00 +6°C° 0 mm 5 mps 720 mmHg 88%
    05:00 +5°C° 0 mm 5 mps 721 mmHg 89%
    06:00 +7°C° 0 mm 5 mps 721 mmHg 82%
    07:00 +8°C° 0 mm 5 mps 722 mmHg 75%
    08:00 +10°C° 0 mm 5 mps 722 mmHg 69%
    09:00 +11°C° 0 mm 6 mps 723 mmHg 64%
    10:00 +13°C° 0 mm 6 mps 723 mmHg 59%
    11:00 +14°C° 0 mm 6 mps 723 mmHg 54%
    12:00 +14°C° 0 mm 5 mps 723 mmHg 52%
    13:00 +15°C° 0 mm 5 mps 723 mmHg 50%
    14:00 +15°C° 0 mm 5 mps 723 mmHg 48%
    15:00 +15°C° 0 mm 4 mps 723 mmHg 48%
    16:00 +15°C° 0 mm 4 mps 723 mmHg 48%
    17:00 +15°C° 0 mm 4 mps 723 mmHg 48%
    18:00 +14°C° 0 mm 3 mps 723 mmHg 53%
    19:00 +13°C° 0 mm 3 mps 723 mmHg 59%
    20:00 +12°C° 0 mm 2 mps 724 mmHg 64%
    21:00 +10°C° 0 mm 2 mps 724 mmHg 64%
    22:00 +9°C° 0 mm 2 mps 724 mmHg 64%
    23:00 +8°C° 0 mm 2 mps 724 mmHg 64%

    29 May, Friday

    Time Temperature Precipitation Wind Pressure Humidity
    00:00 +8°C° 0 mm 2 mps 724 mmHg 67%
    01:00 +7°C° 0 mm 2 mps 724 mmHg 69%
    02:00 +7°C° 0 mm 2 mps 724 mmHg 71%
    03:00 +7°C° 0 mm 2 mps 724 mmHg 73%
    04:00 +7°C° 0 mm 2 mps 724 mmHg 74%
    05:00 +7°C° 0 mm 2 mps 724 mmHg 76%
    06:00 +9°C° 0 mm 2 mps 724 mmHg 69%
    07:00 +11°C° 0 mm 3 mps 724 mmHg 63%
    08:00 +13°C° 0 mm 3 mps 724 mmHg 56%
    09:00 +16°C° 0 mm 3 mps 724 mmHg 51%
    10:00 +17°C° 0 mm 4 mps 724 mmHg 46%
    11:00 +18°C° 0 mm 4 mps 724 mmHg 41%
    12:00 +19°C° 0 mm 4 mps 724 mmHg 39%
    13:00 +19°C° 0 mm 4 mps 723 mmHg 38%
    14:00 +20°C° 0 mm 4 mps 723 mmHg 36%
    15:00 +20°C° 0 mm 4 mps 723 mmHg 37%
    16:00 +20°C° 0 mm 4 mps 722 mmHg 37%
    17:00 +20°C° 0 mm 5 mps 722 mmHg 37%
    18:00 +18°C° 0 mm 4 mps 721 mmHg 43%
    19:00 +15°C° 0 mm 4 mps 721 mmHg 49%
    20:00 +14°C° 0 mm 4 mps 721 mmHg 55%
    21:00 +13°C° 0 mm 4 mps 720 mmHg 54%
    22:00 +13°C° 0 mm 5 mps 720 mmHg 52%
    23:00 +12°C° 0 mm 5 mps 720 mmHg 51%

    30 May, Saturday

    Time Temperature Precipitation Wind Pressure Humidity
    00:00 +12°C° 0 mm 5 mps 720 mmHg 53%
    01:00 +10°C° 0 mm 5 mps 719 mmHg 54%
    02:00 +10°C° 0 mm 5 mps 719 mmHg 56%
    03:00 +10°C° 0 mm 5 mps 719 mmHg 58%
    04:00 +10°C° 0 mm 5 mps 718 mmHg 61%
    05:00 +10°C° 0 mm 5 mps 718 mmHg 64%
    06:00 +11°C° 0 mm 6 mps 718 mmHg 61%
    07:00 +14°C° 0 mm 6 mps 717 mmHg 58%
    08:00 +16°C° 0 mm 7 mps 717 mmHg 56%
    09:00 +17°C° 0 mm 7 mps 717 mmHg 54%
    10:00 +20°C° 0 mm 7 mps 716 mmHg 52%
    11:00 +21°C° 0 mm 7 mps 715 mmHg 50%
    12:00 +22°C° 0 mm 7 mps 715 mmHg 49%
    13:00 +23°C° 0 mm 7 mps 714 mmHg 48%
    14:00 +26°C° 0 mm 7 mps 713 mmHg 47%
    15:00 +26°C° 0 mm 6 mps 713 mmHg 48%
    16:00 +26°C° 0 mm 6 mps 713 mmHg 48%
    17:00 +26°C° 0 mm 5 mps 712 mmHg 49%
    18:00 +25°C° 0 mm 5 mps 711 mmHg 55%
    19:00 +22°C° 0 mm 5 mps 711 mmHg 61%
    20:00 +21°C° 0 mm 5 mps 710 mmHg 66%
    21:00 +20°C° 0 mm 5 mps 710 mmHg 67%
    22:00 +20°C° 0 mm 6 mps 710 mmHg 67%
    23:00 +18°C° 0 mm 7 mps 710 mmHg 67%
    Show more